Lexington Weather

Lexington, Massachusetts, USA

68°F
9/23/2021 5:03am 
  • Lexington Conditions: Mostly cloudy
  • Temperature: 67.6°F / 19.8°CWarmer 1.0°F than last hour.
  • Dew Point: 66.7°FIncreased 1.4°Fsince last hour.
  • Relative Humidity: 97%Increased 1.0% since last hour.
  • Wind: Wind from SW SW Calm, 10-min avg: 1 mph, gust: 4 mph
  • Barometer: 30.03 in Steady
  • Visibility: 10 miles
  • Rain Today: 0.00 in
  •   

Regional Weather Roundup
for Boston / Norton, MA

        
000
ASUS41 KBOX 220204
RWRBOX

REGIONAL WEATHER ROUNDUP
NATIONAL WEATHER SERVICE BOSTON/NORTON MA
1000 PM EDT TUE SEP 21 2021

NOTE:  "FAIR" INDICATES FEW OR NO CLOUDS BELOW 12,000 FEET WITH NO 
SIGNIFICANT WEATHER AND/OR OBSTRUCTIONS TO VISIBILITY.

MAZALL-220300-
EASTERN MASSACHUSETTS
  
CITY           SKY/WX    TMP DP  RH WIND       PRES   REMARKS
BOSTON         MOCLDY    68  64  87 SE7       30.32F                  
BEVERLY        MOCLDY    68  65  90 SE7       30.31F                  
LAWRENCE       MOCLDY    65  63  93 CALM      30.34S                  
BEDFORD        MOCLDY    62  61  96 CALM      30.31F                  
BLUE HILL      NOT AVBL                                               
NORWOOD        CLOUDY    66  62  87 SE5       30.32S                  
MARSHFIELD     CLOUDY    68  66  94 SE7       30.33R                  
PLYMOUTH       CLOUDY    68  66  93 SE6       30.33F                  
TAUNTON        CLOUDY    69  66  90 SE7       30.32F                  
NEW BEDFORD    CLOUDY    70  68  93 SE8       30.32S                  
$$

MAZALL-220300-
CAPE COD AND THE ISLANDS
  
CITY           SKY/WX    TMP DP  RH WIND       PRES   REMARKS
FALMOUTH       CLOUDY    68  68 100 SE6       30.33F                  
HYANNIS        CLOUDY    69  66  90 SE6       30.32F                  
CHATHAM        CLOUDY    66  62  87 VRB3      30.35F                  
PROVINCETOWN   CLOUDY    67  64  90 S8        30.35S                  
NANTUCKET      MOCLDY    69  65  86 SE10      30.34S                  
MARTHAS VNYRD  CLOUDY    69  67  93 SE7       30.32F                  
$$
 
MAZALL-220300-
CENTRAL AND WESTERN MASSACHUSETTS
  
CITY           SKY/WX    TMP DP  RH WIND       PRES   REMARKS
WORCESTER      MOCLDY    62  57  83 SW3       30.34S                  
FITCHBURG      LGT RAIN  59  58  96 CALM      30.33S                  
ORANGE         CLEAR     58  56  93 CALM      30.33F                  
SPRINGFIELD    PTCLDY    59  59  99 N3        30.30S                  
WESTFIELD      MOCLDY    61  61 100 CALM      30.30F                  
NORTH ADAMS    NOT AVBL                                               
PITTSFIELD     PTCLDY    58  56  93 SE6       30.30F                  
$$
 
RIZALL-220300-
RHODE ISLAND
  
CITY           SKY/WX    TMP DP  RH WIND       PRES   REMARKS
PROVIDENCE     CLOUDY    70  67  90 SE6       30.32S                  
NEWPORT        CLOUDY    68  67  96 SE6       30.31F                  
BLOCK ISLAND   PTCLDY    68  67  96 SE8       30.31F                  
SMITHFIELD     CLOUDY    67  64  90 CALM      30.33S                  
WESTERLY       CLOUDY    65  64  97 N3        30.31S                  
$$
 
CTZALL-220300-
CONNECTICUT
  
CITY           SKY/WX    TMP DP  RH WIND       PRES   REMARKS
BRADLEY INTL   MOCLDY    61  60  97 W3        30.30F                  
HARTFORD       CLEAR     64  59  83 CALM      30.29F                  
BRIDGEPORT     CLOUDY    72  65  78 E10       30.28F                  
DANBURY        CLOUDY    69  64  84 SE5       30.29F                  
GROTON         CLOUDY    67  64  90 NE3       30.29F                  
NEW HAVEN      PTCLDY    68  63  84 E5        30.28F                  
CHESTER        FAIR      64  61  88 CALM      30.30F                  
MERIDEN        PTCLDY    61  58  90 CALM      30.29F                  
WILLIMANTIC    PTCLDY    62  60  93 CALM      30.31F                  
OXFORD         PTCLDY    63  60  90 SE6       30.31F                  
$$

MEZ002-015-021-024-NHZ003-005-008-011-012-014-VTZ005-008-220300-
NORTHERN NEW ENGLAND
  
CITY           SKY/WX    TMP DP  RH WIND       PRES   REMARKS
PORTLAND ME    PTCLDY    60  59  96 CALM      30.34F                  
BANGOR ME      MOCLDY    61  59  93 S7        30.35S                  
CONCORD NH     CLEAR     61  59  93 CALM      30.32F                  
MANCHESTER NH  PTCLDY    65  60  84 S3        30.30S                  
NASHUA NH      CLEAR     60  60 100 NW3       30.33S                  
PORTSMOUTH NH  MOCLDY    63  61  94 SE5       30.33F                  
JAFFREY NH     CLEAR     60  59  96 CALM      30.34S                  
KEENE NH       CLEAR     58  57  97 CALM      30.32F                  
BURLINGTON VT  PTCLDY    64  52  64 S9        30.24S                  
MT. WASHINGTON FOG       43  43 100 SW25G35     N/A  VSB 1/16         
$$

NYZ052-076-220300-
EASTERN NEW YORK
  
CITY           SKY/WX    TMP DP  RH WIND       PRES   REMARKS
ALBANY         MOCLDY    63  58  83 SE5       30.27S                  
NEW YORK CITY  CLOUDY    72  67  84 E8        30.25F                  
$$
 
ANZALL-220300-
MARINE OBSERVATIONS
  
STATION/POSITION TIME  TEMP    WIND        PRES    VSBY  WAVE
                       AIR SEA DIR/SP/G                  HT/PER
                 (UTC) (F)     (DEG/KT/KT) (MB)    (MI)  (FT/S)
BOSTON BUOY      0140      66  150/ 10/ 12 1027.4F
BUZZARDS BAY     0100          130/ 17/ 18 1027.4F
NANTUCKET SOUND  0140   71 71  130/ 14/ 17 1026.8F
MASS BAY-STELLWA 0104   67     160/ 10/ 12 1027.0F  1 7/8  4/ 8
ISLE OF SHOALS   0100   66     160/ 17/ 18 1026.6F
S OF BLOCK IS    0126      70                N/A           4/11
$$

......................KEY.........................
  SKY/WX - SKY CONDITION/PRESENT WEATHER
  TMP    - TEMPERATURE IN FAHRENHEIT
  DWPT   - DEWPOINT IN FAHRENHEIT
  RH     - RELATIVE HUMIDITY IN PERCENT
  WIND   - DIRECTION AND SPEED IN MPH
  PRES   - MEAN SEA LEVEL PRESSURE IN INCHES OF HG
  WCI    - WIND CHILL INDEX
  VSB    - VISIBILITY IN MILES
  HX     - HEAT INDEX
  TC     - TEMPERATURE IN CELSIUS
  VRB    - VARIABLE WIND DIRECTION
  N/A    - NOT AVAILABLE
  
      

Other recent Regional Weather Roundups

Thu Sep 23, 4:04am

Thu Sep 23, 3:04am

Thu Sep 23, 2:04am

Thu Sep 23, 1:04am

Thu Sep 23, 12:04am

Wed Sep 22, 11:04pm

Wed Sep 22, 10:04pm

Wed Sep 22, 9:04pm

Wed Sep 22, 8:04pm

Wed Sep 22, 7:04pm

Wed Sep 22, 6:04pm

Wed Sep 22, 5:04pm

Wed Sep 22, 4:04pm

Wed Sep 22, 3:04pm

Wed Sep 22, 2:04pm

Wed Sep 22, 1:04pm

Wed Sep 22, 12:05pm

Wed Sep 22, 11:04am

Wed Sep 22, 10:04am

Wed Sep 22, 9:04am

Wed Sep 22, 8:04am

Wed Sep 22, 7:04am

Wed Sep 22, 6:04am

Wed Sep 22, 5:04am

Wed Sep 22, 4:04am

Wed Sep 22, 3:04am

Wed Sep 22, 2:04am

Wed Sep 22, 1:04am

Wed Sep 22, 12:04am

Tue Sep 21, 11:04pm

Tue Sep 21, 9:04pm

Tue Sep 21, 8:04pm

Tue Sep 21, 7:04pm

Tue Sep 21, 6:04pm

Tue Sep 21, 5:04pm

Tue Sep 21, 4:04pm

Tue Sep 21, 3:04pm

Tue Sep 21, 2:04pm

Tue Sep 21, 1:04pm

Tue Sep 21, 12:04pm

Tue Sep 21, 11:04am

Tue Sep 21, 10:04am

Tue Sep 21, 9:04am

Tue Sep 21, 8:04am

Tue Sep 21, 7:04am

Tue Sep 21, 6:04am

Tue Sep 21, 5:04am

Tue Sep 21, 4:04am

Tue Sep 21, 3:04am

Tue Sep 21, 2:04am

Tue Sep 21, 1:04am

Tue Sep 21, 12:04am

Mon Sep 20, 11:04pm

Mon Sep 20, 10:04pm

Mon Sep 20, 9:04pm

Mon Sep 20, 8:04pm

Mon Sep 20, 7:04pm

Mon Sep 20, 6:04pm

Mon Sep 20, 5:04pm

Mon Sep 20, 4:04pm

Mon Sep 20, 3:04pm

Mon Sep 20, 2:04pm

Mon Sep 20, 1:04pm

Mon Sep 20, 12:04pm

Mon Sep 20, 11:04am

Mon Sep 20, 10:04am

Mon Sep 20, 9:04am

Mon Sep 20, 7:04am

Mon Sep 20, 6:04am

Mon Sep 20, 5:04am

Mon Sep 20, 4:04am

Mon Sep 20, 3:04am

Mon Sep 20, 2:04am

Mon Sep 20, 1:04am

Mon Sep 20, 12:04am

Sun Sep 19, 11:04pm

Sun Sep 19, 10:04pm

Sun Sep 19, 9:04pm

Sun Sep 19, 8:04pm

Sun Sep 19, 7:04pm

Sun Sep 19, 6:04pm

Sun Sep 19, 5:04pm

Sun Sep 19, 4:04pm

Sun Sep 19, 3:04pm

Sun Sep 19, 2:05pm

Sun Sep 19, 1:04pm

Sun Sep 19, 12:04pm

Sun Sep 19, 11:04am

Sun Sep 19, 10:05am

Sun Sep 19, 9:04am

Sun Sep 19, 8:04am

Sun Sep 19, 7:04am

Sun Sep 19, 6:04am

Sun Sep 19, 5:04am

Sun Sep 19, 4:04am

Sun Sep 19, 3:04am

Sun Sep 19, 2:04am

Sun Sep 19, 1:04am

Sun Sep 19, 12:04am

Sat Sep 18, 11:05pm

Sat Sep 18, 10:04pm

Sat Sep 18, 9:04pm

Sat Sep 18, 8:04pm

Sat Sep 18, 7:04pm

Sat Sep 18, 6:04pm

Sat Sep 18, 5:04pm

Sat Sep 18, 4:04pm

Sat Sep 18, 3:04pm

Sat Sep 18, 2:04pm

Sat Sep 18, 1:04pm

Sat Sep 18, 12:04pm

Sat Sep 18, 11:04am

Sat Sep 18, 10:04am

Sat Sep 18, 9:04am

Sat Sep 18, 8:04am

Sat Sep 18, 7:04am

Sat Sep 18, 6:04am

Sat Sep 18, 5:04am

Sat Sep 18, 4:04am

Sat Sep 18, 3:04am

Sat Sep 18, 2:04am

Sat Sep 18, 1:04am

Sat Sep 18, 12:04am

Fri Sep 17, 11:04pm

Fri Sep 17, 10:04pm

Fri Sep 17, 9:04pm

Fri Sep 17, 8:04pm

Fri Sep 17, 7:04pm

Fri Sep 17, 6:04pm

Fri Sep 17, 5:04pm

Fri Sep 17, 4:04pm

Fri Sep 17, 3:04pm

Fri Sep 17, 2:04pm

Fri Sep 17, 1:04pm

Fri Sep 17, 12:05pm

Fri Sep 17, 11:04am

Fri Sep 17, 10:04am

Fri Sep 17, 9:04am

Fri Sep 17, 8:04am

Fri Sep 17, 7:04am

Fri Sep 17, 6:04am

Fri Sep 17, 5:04am

Fri Sep 17, 4:04am

Fri Sep 17, 3:04am

Fri Sep 17, 2:04am

Fri Sep 17, 1:04am

Fri Sep 17, 12:04am

Thu Sep 16, 11:04pm

Thu Sep 16, 10:04pm

Thu Sep 16, 9:04pm

Thu Sep 16, 8:04pm

Thu Sep 16, 7:04pm

Thu Sep 16, 6:04pm

Thu Sep 16, 5:04pm

Thu Sep 16, 4:04pm

Thu Sep 16, 3:04pm

Thu Sep 16, 2:04pm

Thu Sep 16, 1:05pm

Thu Sep 16, 12:04pm

Thu Sep 16, 11:05am

Thu Sep 16, 10:05am

Thu Sep 16, 9:04am

Thu Sep 16, 8:04am

Thu Sep 16, 7:04am

Thu Sep 16, 6:04am

Thu Sep 16, 5:04am

Meta data:

ID: e2fcf86b-cd82-4695-b628-45b072b96827
Link: https://api.weather.gov/products/e2fcf86b-cd82-4695-b628-45b072b96827